sat.trackr.live / text

‹ back to catalog

QIANFAN-88

NORAD 63174 · 2025-046R

PAYLOAD ACTIVE UNKNOWN

§ Identity

Operator
Country
PRC
Launch date
2025-03-11
Launch site
WSC
Launch vehicle
Mass (kg)
RCS (m²)

External: N2YO · Heavens-Above · Gunter

§ Orbital elements

Epoch: 2026-05-25T03:35:30.774336Z

Period
106.59 min
Inclination
88.9691°
Eccentricity
0.0012744
Mean motion
13.51005690 rev/d
Perigee alt
1,059.1 km
Apogee alt
1,078.1 km
Semi-major
7,446.7 km
B*
4.8391e-5
RAAN
302.9108°
Arg perigee
32.0869°
Mean anomaly
328.1055°
Rev number
6,957

§ Raw data

QIANFAN-881 63174U 25046R   26145.14966174  .00000043  00000+0  48391-4 0  99992 63174  88.9691 302.9108 0012744  32.0869 328.1055 13.51005690 69574

JSON: /api/v1/satellites/63174 · /tle

For live sub-satellite position, see the globe view (requires WebGL).

§ Visibility from observer

Set your observer location to see the next 7 days of passes ≥ 10°. The values pass through the URL so the page stays shareable.

No JS? Fill the form by hand. The geolocation button needs JavaScript.